{"data":{"norad_id":57175,"epoch":"2026-05-25T03:29:09.550752Z","epoch_age_seconds":72756,"freshness":"FRESH","line1":"1 57175U 23091K   26145.14524943  .00011220  00000+0  40629-3 0  9999","line2":"2 57175  97.5063 208.1656 0010063 187.2953 172.8142 15.28520004160784","mean_motion":15.28520004,"eccentricity":0.0010063,"inclination_deg":97.5063,"raan_deg":208.1656,"arg_perigee_deg":187.2953,"mean_anomaly_deg":172.8142,"bstar":0.00040629,"rev_number":16078,"period_min":94.208776871199,"perigee_km":473.33424790428,"apogee_km":487.13740905888,"semimajor_km":6858.3728284816,"source":"CELESTRAK","updated_at":"2026-05-25T13:37:59.906670Z"}}